This is the latest recevied weather packets stored in our database for station/object R1CBW-13. If no packets are shown the sender has not sent any weather packets the latest 10 day(s).
| Time | Temp. | Humidity | Pressure | Rain* | Wind** | Luminosity | Snow |
|---|---|---|---|---|---|---|---|
| 1777638401 | 15.56° C | 43% | 1018 hPa | 0 mm | - | - | - |
| 1777638341 | 15° C | 44% | 1018.1 hPa | 0 mm | - | - | - |
| 1777638281 | 15° C | 43% | 1018 hPa | 0 mm | - | - | - |
| 1777638221 | 16.11° C | 42% | 1018.1 hPa | 0 mm | - | - | - |
| 1777638161 | 15.56° C | 42% | 1018.1 hPa | 0 mm | - | - | - |
| 1777638101 | 15° C | 43% | 1018.1 hPa | 0 mm | - | - | - |
| 1777638041 | 15° C | 44% | 1018.1 hPa | 0 mm | - | - | - |
| 1777637981 | 14.44° C | 44% | 1018.1 hPa | 0 mm | - | - | - |
| 1777637921 | 15° C | 43% | 1018.1 hPa | 0 mm | - | - | - |
| 1777637861 | 15° C | 44% | 1018.3 hPa | 0 mm | - | - | - |
| 1777637801 | 14.44° C | 44% | 1018.2 hPa | 0 mm | - | - | - |
| 1777637741 | 14.44° C | 45% | 1018.1 hPa | 0 mm | - | - | - |
| 1777637681 | 13.89° C | 45% | 1018.2 hPa | 0 mm | - | - | - |
| 1777637621 | 13.89° C | 46% | 1018.2 hPa | 0 mm | - | - | - |
| 1777637561 | 13.89° C | 46% | 1018.2 hPa | 0 mm | - | - | - |
| 1777637501 | 13.89° C | 47% | 1018.3 hPa | 0 mm | - | - | - |
| 1777637441 | 13.89° C | 46% | 1018.3 hPa | 0 mm | - | - | - |
| 1777637381 | 13.33° C | 47% | 1018.3 hPa | 0 mm | - | - | - |
| 1777637321 | 13.89° C | 46% | 1018.3 hPa | 0 mm | - | - | - |
| 1777637261 | 13.89° C | 45% | 1018.3 hPa | 0 mm | - | - | - |
| 1777637201 | 14.44° C | 44% | 1018.2 hPa | 0 mm | - | - | - |
| 1777637141 | 14.44° C | 45% | 1018.3 hPa | 0 mm | - | - | - |
| 1777637081 | 15° C | 44% | 1018.4 hPa | 0 mm | - | - | - |
| 1777637021 | 14.44° C | 45% | 1018.3 hPa | 0 mm | - | - | - |
| 1777636961 | 14.44° C | 46% | 1018.3 hPa | 0 mm | - | - | - |
* Rain latest hour (hover to see other rain measurements)
** Current wind speed in m/s (hover to see current wind gust speed)